Vorticity
4 2 5 13 13 14 8 8 10 9 7 5 5 7 5 6 8 3 5 3 4 6 6 3 7 10 15 16 11 3 13 3 6 7 5 6 7 8 8 9 8 8 7 10 11
4 6 4 3 11 16 17 9 6 8 9 8 3 9 5 6 9 3 6 3 6 8 9 4 8 13 17 15 14 12 12 7 3 3 5 9 10 12 7 9 12 14 4 4 4
7 2 2 3 6 6 14 22 12 7 6 9 4 9 8 4 11 3 7 3 7 7 9 7 9 14 16 12 13 14 11 -1 -0 3 9 11 9 2 4 6 -1 5 1 4 12
7 5 4 6 3 3 11 13 17 15 9 7 7 10 8 6 7 4 6 4 9 7 7 6 12 11 11 7 8 6 3 2 3 5 11 8 5 -1 1 -1 4 4 20 23 23
2 4 9 10 4 5 3 15 14 15 14 13 10 9 6 9 8 5 3 5 9 7 7 6 9 10 11 7 4 6 5 3 4 12 3 2 6 -2 -4 0 3 12 27 22 28
7 6 5 7 8 -0 7 2 14 14 6 5 5 9 12 8 5 7 1 6 10 9 7 6 5 12 9 8 6 8 8 2 1 9 3 -0 13 -3 0 -1 6 19 22 8 10
8 7 7 6 12 7 5 6 7 16 11 7 10 13 11 7 8 7 1 12 8 9 9 7 2 13 15 9 4 9 6 3 3 4 2 2 7 7 1 0 8 15 26 8 9
12 8 8 7 10 5 7 11 11 18 18 13 15 10 5 8 8 5 -1 13 5 11 9 8 3 9 14 9 11 11 8 3 3 3 3 4 1 3 1 2 10 6 11 21 5
10 11 10 10 7 10 7 8 19 22 19 13 10 3 10 3 7 5 5 8 4 12 9 9 5 -1 12 14 8 6 5 5 6 9 2 6 3 -1 3 4 4 4 3 17 22
17 13 8 10 11 10 12 9 23 16 9 9 4 -2 7 5 -2 11 4 5 6 13 10 10 10 -2 17 7 8 -3 10 12 3 6 1 3 2 4 4 5 5 7 7 22 24
10 5 1 6 15 11 13 12 22 9 11 15 4 3 5 -3 6 17 12 3 11 12 11 10 14 1 13 5 7 10 8 13 8 3 8 14 2 3 7 4 2 5 6 7 23
6 3 2 6 6 10 10 13 18 0 7 4 9 6 4 4 20 -5 8 3 13 11 11 13 4 4 10 4 7 12 10 12 15 10 13 6 -0 6 9 3 4 5 3 1 38
1 2 1 -1 6 13 11 14 20 1 6 -2 13 -8 13 23 10 7 -0 13 11 13 10 14 -6 9 11 5 4 15 11 5 9 8 7 22 37 32 3 2 4 4 6 4 -7
0 -0 -0 4 -1 6 13 13 16 17 1 -0 6 -4 7 20 -4 3 11 11 10 10 17 9 -3 10 16 7 4 26 9 1 7 18 8 -5 -3 11 13 2 3 3 1 6 1
7 8 2 2 1 4 11 13 15 14 3 12 -1 8 3 11 14 -0 10 12 20 8 9 -12 17 12 7 10 1 8 -4 15 15 21 11 20 15 19 10 2 2 2 3 4 4
7 10 5 1 1 7 11 12 18 14 -2 4 2 9 3 12 5 6 12 16 5 19 -8 19 13 -4 17 8 22 -3 18 22 23 11 20 29 -0 19 14 14 5 4 3 4 4
8 7 5 3 3 11 11 12 17 12 2 -1 1 11 2 13 2 6 14 7 16 25 5 12 15 -9 -1 -3 28 7 16 14 13 13 -2 6 20 -18 -14 3 7 6 7 5 5
4 2 3 5 10 8 9 17 16 -6 11 3 6 14 2 6 4 2 15 2 7 8 28 2 12 1 10 -4 6 15 14 13 14 8 -4 4 14 4 15 15 7 6 5 6 5
4 6 8 11 6 12 13 20 5 7 3 8 11 16 4 -2 20 8 18 3 8 -3 22 14 5 18 19 -12 21 4 5 10 11 20 14 9 8 12 24 3 6 6 5 7 6
7 7 9 8 14 13 20 15 8 10 7 6 15 10 -4 1 15 10 16 -0 17 -6 8 -8 21 7 -1 8 3 12 12 7 7 11 16 12 10 0 2 26 8 9 2 6 7
8 7 6 9 15 22 13 3 9 11 7 10 5 10 4 5 2 16 3 15 -7 4 6 17 13 -26 12 5 13 18 14 9 8 6 2 6 15 7 -2 -9 14 9 1 4 10
6 9 14 15 27 4 6 10 11 9 11 8 5 18 2 9 13 30 -12 11 3 5 17 11 12 4 7 29 26 4 8 9 3 4 -11 -9 -1 47 36 23 26 2 -7 11 10
8 12 6 7 3 7 8 7 12 9 5 4 16 9 10 5 20 -3 6 -6 10 -2 -8 10 -0 15 25 20 -1 -3 -4 2 -2 18 11 -10 -3 -11 -17 -7 -7 -14 -12 5 9
8 11 10 27 -3 8 9 13 8 10 9 9 9 10 3 5 11 -7 12 22 -10 22 7 20 25 -4 -33 -26 -9 -4 9 9 7 12 -0 -22 -21 9 4 3 -6 -10 3 7 7
5 6 5 -4 6 6 8 11 11 7 8 4 4 7 0 9 1 14 -6 6 20 31 -1 28 4 13 11 9 2 8 18 22 16 19 11 -15 -6 27 28 22 23 16 14 12 4
5 8 9 6 7 6 7 9 11 9 7 0 16 6 4 11 5 3 5 14 5 12 -21 13 14 -14 -2 32 28 -1 25 43 29 19 21 34 12 27 18 15 8 36 22 22 13
6 6 7 5 6 5 11 5 3 9 14 2 8 2 3 13 3 6 13 4 12 14 12 19 22 7 21 11 -16 63 -4 6 -4 12 10 6 10 10 8 3 13 7 14 15 12
Height
3174 3172 3169 3166 3163 3160 3158 3157 3155 3154 3153 3151 3150 3148 3147 3147 3145 3144 3143 3142 3138 3135 3133 3130 3128 3126 3124 3123 3123 3123 3125 3126 3127 3128 3129 3128 3127 3126 3125 3125 3125 3123 3121 3118 3117
3175 3173 3170 3167 3164 3160 3158 3155 3154 3153 3152 3151 3150 3149 3148 3147 3146 3144 3143 3141 3139 3136 3134 3132 3130 3127 3126 3124 3123 3124 3124 3125 3127 3128 3128 3126 3126 3126 3126 3124 3124 3122 3120 3116 3112
3176 3174 3171 3168 3165 3162 3158 3155 3153 3152 3151 3151 3150 3149 3147 3146 3146 3144 3143 3141 3139 3137 3135 3132 3130 3128 3126 3125 3124 3123 3124 3126 3127 3127 3126 3126 3125 3125 3124 3123 3120 3117 3114 3110 3106
3177 3174 3172 3168 3165 3162 3158 3155 3153 3151 3150 3150 3150 3149 3147 3146 3148 3144 3143 3142 3140 3137 3135 3132 3130 3129 3126 3126 3125 3125 3126 3127 3127 3126 3125 3124 3124 3123 3122 3121 3117 3112 3104 3098 3092
3178 3175 3172 3169 3165 3162 3159 3156 3153 3151 3150 3149 3149 3149 3147 3147 3146 3144 3144 3142 3140 3138 3135 3133 3131 3130 3128 3127 3127 3126 3126 3126 3126 3125 3124 3123 3122 3121 3120 3118 3112 3106 3098 3094 3088
3178 3175 3172 3169 3166 3163 3160 3156 3153 3151 3150 3149 3148 3148 3147 3147 3146 3145 3144 3143 3140 3138 3136 3134 3132 3130 3128 3127 3127 3126 3125 3125 3125 3123 3122 3121 3120 3119 3117 3113 3110 3101 3094 3088 3083
3179 3175 3172 3169 3166 3163 3159 3156 3153 3150 3149 3148 3148 3147 3148 3149 3146 3146 3145 3143 3140 3138 3136 3134 3133 3131 3129 3127 3126 3125 3124 3123 3123 3122 3121 3120 3118 3116 3114 3111 3106 3098 3092 3086 3082
3179 3175 3172 3168 3165 3162 3159 3156 3152 3149 3148 3148 3148 3149 3149 3148 3148 3147 3145 3142 3140 3138 3136 3134 3133 3132 3130 3128 3127 3126 3127 3126 3124 3122 3121 3120 3117 3114 3111 3108 3101 3094 3089 3084 3080
3178 3175 3171 3168 3165 3162 3158 3155 3151 3149 3148 3149 3150 3150 3150 3150 3149 3146 3144 3142 3140 3138 3136 3135 3135 3133 3132 3130 3129 3128 3126 3125 3124 3122 3121 3119 3116 3112 3110 3106 3100 3094 3088 3084 3078
3178 3175 3172 3169 3165 3161 3158 3154 3152 3150 3150 3150 3151 3153 3152 3150 3148 3146 3144 3142 3140 3137 3136 3135 3134 3133 3131 3130 3129 3126 3125 3124 3123 3123 3120 3117 3114 3112 3108 3105 3100 3093 3087 3081 3073
3179 3176 3174 3170 3166 3162 3159 3156 3156 3154 3153 3152 3153 3152 3151 3150 3147 3145 3143 3142 3139 3137 3135 3134 3134 3132 3130 3129 3128 3127 3125 3122 3121 3119 3116 3114 3112 3109 3106 3103 3099 3095 3088 3080 3074
3180 3177 3174 3170 3166 3162 3159 3158 3155 3156 3154 3154 3153 3152 3151 3149 3147 3145 3144 3142 3138 3136 3134 3134 3132 3131 3129 3128 3126 3124 3122 3121 3119 3117 3115 3111 3108 3105 3103 3101 3098 3094 3089 3083 3077
3181 3178 3175 3172 3168 3165 3160 3158 3155 3155 3155 3155 3154 3153 3150 3148 3146 3145 3143 3139 3137 3134 3133 3132 3132 3130 3128 3126 3125 3122 3120 3118 3117 3114 3112 3108 3101 3100 3100 3098 3095 3093 3089 3085 3080
3181 3178 3176 3173 3171 3165 3162 3158 3156 3154 3155 3157 3154 3153 3151 3148 3147 3144 3141 3140 3136 3134 3132 3132 3131 3129 3127 3125 3123 3119 3117 3115 3114 3112 3111 3110 3105 3098 3096 3095 3093 3092 3089 3085 3080
3179 3177 3175 3171 3168 3165 3162 3158 3155 3155 3157 3158 3155 3153 3150 3150 3148 3145 3141 3138 3135 3134 3134 3133 3130 3128 3127 3125 3122 3121 3117 3114 3111 3109 3108 3107 3109 3095 3094 3093 3093 3091 3089 3086 3082
3177 3175 3173 3171 3167 3164 3160 3157 3156 3157 3155 3156 3154 3152 3150 3148 3146 3144 3141 3139 3136 3134 3132 3131 3129 3128 3127 3125 3122 3119 3116 3112 3109 3108 3106 3102 3105 3095 3093 3092 3091 3091 3089 3086 3084
3176 3174 3172 3170 3167 3163 3159 3157 3156 3153 3157 3156 3153 3150 3149 3147 3145 3143 3141 3139 3137 3134 3131 3130 3129 3128 3127 3125 3121 3119 3116 3111 3112 3110 3105 3101 3101 3092 3092 3091 3090 3089 3088 3085 3084
3175 3173 3171 3168 3164 3161 3158 3157 3154 3154 3153 3153 3151 3150 3149 3147 3145 3143 3140 3139 3137 3136 3133 3131 3129 3129 3127 3125 3122 3119 3119 3119 3118 3113 3106 3101 3093 3088 3089 3089 3088 3087 3086 3084 3082
3173 3171 3169 3166 3162 3159 3158 3155 3155 3154 3154 3152 3150 3148 3149 3147 3146 3143 3141 3139 3138 3137 3136 3132 3129 3127 3125 3123 3122 3119 3119 3118 3115 3109 3107 3095 3092 3089 3087 3086 3086 3085 3084 3083 3081
3172 3169 3167 3163 3160 3158 3157 3156 3155 3154 3153 3152 3151 3150 3148 3146 3145 3143 3141 3140 3138 3136 3134 3132 3127 3124 3123 3121 3120 3119 3119 3117 3114 3111 3107 3094 3091 3086 3086 3086 3085 3084 3083 3082 3080
3169 3167 3164 3161 3158 3157 3156 3156 3154 3153 3153 3152 3150 3149 3147 3146 3143 3141 3140 3139 3136 3135 3133 3129 3127 3124 3121 3118 3116 3115 3115 3115 3115 3113 3110 3102 3089 3084 3083 3083 3083 3083 3082 3081 3079
3167 3165 3162 3160 3159 3156 3155 3154 3153 3151 3151 3150 3148 3146 3145 3143 3141 3140 3140 3139 3137 3134 3131 3129 3124 3119 3117 3113 3112 3113 3112 3113 3113 3111 3108 3104 3082 3080 3080 3079 3079 3079 3079 3079 3078
3165 3163 3161 3159 3157 3156 3155 3153 3152 3150 3149 3147 3146 3145 3144 3144 3143 3141 3140 3138 3135 3133 3130 3127 3122 3118 3113 3113 3111 3109 3108 3108 3107 3105 3099 3101 3079 3077 3079 3078 3077 3075 3075 3075 3074
3164 3162 3160 3157 3156 3155 3153 3152 3151 3149 3148 3146 3145 3144 3143 3142 3141 3139 3137 3134 3132 3129 3127 3124 3118 3117 3112 3110 3109 3104 3101 3100 3101 3096 3090 3077 3070 3070 3073 3075 3073 3070 3068 3068 3068
3161 3160 3158 3156 3154 3152 3151 3150 3149 3147 3146 3144 3142 3141 3140 3138 3136 3135 3133 3130 3127 3124 3122 3120 3113 3110 3105 3102 3100 3093 3088 3089 3088 3083 3087 3066 3071 3062 3064 3063 3063 3061 3060 3059 3060
3158 3157 3156 3155 3153 3151 3149 3148 3146 3145 3144 3142 3140 3138 3136 3134 3134 3129 3128 3125 3122 3119 3117 3115 3108 3103 3097 3095 3091 3082 3078 3078 3077 3074 3070 3068 3062 3064 3061 3059 3056 3051 3051 3052 3053
3153 3152 3152 3152 3150 3149 3147 3144 3143 3142 3141 3138 3137 3134 3132 3131 3128 3126 3123 3121 3118 3113 3112 3111 3107 3103 3092 3088 3085 3074 3070 3071 3070 3068 3065 3063 3061 3057 3057 3057 3054 3050 3048 3047 3047